Home   Weather   Saint John   Past weeks

Flag for Canada Past Weather in Saint John, New Brunswick, Canada — Yesterday and Last 2 Weeks

Now
61 °F

Passing clouds.


Feels Like: 61 °F
Forecast: 59 / 74 °F
Wind: 5 mph from Northwest

Location: Saint John

Current Time: Jul 22, 2017 at 7:48:15 am

Latest Report: Jul 22, 2017 at 7:00 am


Visibility: 15 mi

Pressure: 29.75 "Hg

Humidity: 83%

Dew Point: 55 °F

Location of Saint JohnLocation

Past Weather in Saint John — Graph

°F

Saint John Temperature Yesterday

Maximum temperature yesterday: 81 °F (at 1:00 pm)
Minimum temperature yesterday: 59 °F (at 5:33 am)
Average temperature yesterday: 68 °F

High & Low Weather Summary for the Past Weeks

 TemperatureHumidityPressure
High81 °F (Jul 20, 12:00 pm)100% (Jul 7, 11:20 pm)30.20 "Hg (Jul 7, 11:20 pm)
Low41 °F (Jul 14, 6:00 am)27% (Jul 14, 3:00 pm)29.67 "Hg (Jul 8, 6:00 am)
Average63 °F85%29.94 "Hg
* Reported Jul 7 6:00 am — Jul 22 6:00 am, Saint John. Weather by CustomWeather, © 2017

Note: Actual official high and low records may vary slightly from our data, if they occured in-between our weather recording intervals... More about our weather records

Advertising

Saint John Weather History for the Previous 24 Hours

Scroll right to see more
 ConditionsComfort  
Time TempWeatherWind HumidityBarometerVisibility
6:00 am
Sat, Jul 22
59 °FPassing clouds.8 mph88%29.74 "Hg15 mi
5:00 am59 °FPassing clouds.5 mph94%29.71 "Hg15 mi
4:00 am57 °FPassing clouds.2 mph94%29.70 "Hg10 mi
3:00 am61 °FFog.3 mph94%29.70 "Hg6 mi
2:00 am63 °FFog.2 mph100%29.70 "Hg6 mi
1:00 am63 °FSprinkles. Fog.No wind100%29.70 "Hg6 mi
12:19 am63 °FFog.7 mph100%29.70 "Hg10 mi
12:00 am64 °FLight rain. Overcast.5 mph94%29.70 "Hg10 mi
11:00 pm
Fri, Jul 21
64 °FThunderstorms. Partly cloudy.7 mph94%29.71 "Hg10 mi
10:00 pm64 °FThunderstorms. Mostly cloudy.13 mph94%29.70 "Hg10 mi
9:00 pm70 °FMostly cloudy.7 mph73%29.70 "Hg15 mi
8:00 pm70 °FBroken clouds.5 mph78%29.70 "Hg15 mi
7:00 pm72 °FBroken clouds.3 mph73%29.70 "Hg15 mi
6:00 pm72 °FBroken clouds.8 mph73%29.70 "Hg15 mi
5:51 pm72 °FPartly sunny.7 mph73%29.71 "Hg15 mi
5:13 pm75 °FThunderstorms. Broken clouds.N/A65%29.69 "Hg15 mi
4:00 pm81 °FBroken clouds.10 mph58%29.69 "Hg15 mi
3:00 pm77 °FBroken clouds.13 mph65%29.71 "Hg15 mi
2:00 pm81 °FScattered clouds.12 mph58%29.73 "Hg15 mi
1:00 pm81 °FPartly sunny.9 mph58%29.74 "Hg15 mi
12:00 pm77 °FPartly sunny.7 mph65%29.75 "Hg15 mi
11:00 am77 °FPartly sunny.10 mph61%29.76 "Hg15 mi
10:00 am73 °FPassing clouds.8 mph69%29.76 "Hg15 mi
9:00 am72 °FSunny.6 mph73%29.77 "Hg15 mi
8:00 am64 °FSunny.No wind88%29.77 "Hg15 mi
7:28 am61 °FFog.No wind100%29.77 "Hg3 mi
7:00 am59 °FFog.No wind100%29.77 "Hg1 mi
Weather by CustomWeather, © 2017

See weather overviewHow to use our weather pages